Date String (YYYY-MM-DD hh:mm:ss) UTC,Instrument flags,Ambient pressure (hPa),Sample flow (lpm),Bypass flow (lpm),Sample temperature (°C),Ambient temperature (°C),ASC tube jacket temperature (°C),LED temperature (°C),Box temperature (°C),Sample RH (%),Span deviation,Mass concentration (μg/m³),Mass concentration (μg/m³),Mass concentration (μg/m³)
DateTimeUTC,F1_M11,P_M11,Q1_M11,Q2_M11,T1_M11,T2_M11,T3_M11,T4_M11,T5_M11,U1_M11,ZSPAN_M11,X0_M11,X2_M11,X1_M11
2022-02-09 12:00:00,,0827.7,4.99,0.00,22.6,21.8,00.0,31.5,24.3,06.0,0000.0,0004.88,0001.44,0000.97
2022-02-09 12:01:00,,0827.7,5.01,0.00,22.6,21.8,00.0,31.5,24.3,06.0,0000.0,0004.85,0001.43,0000.96
2022-02-09 12:02:00,,0827.7,4.99,0.00,22.6,21.8,00.0,31.5,24.4,06.0,0000.0,0004.78,0001.42,0000.95
2022-02-09 12:03:00,,0827.7,5.00,0.00,22.6,21.8,00.0,31.5,24.4,06.0,0000.0,0004.77,0001.41,0000.94
2022-02-09 12:04:00,,0827.7,5.01,0.00,22.5,21.8,00.0,31.5,24.3,06.1,0000.0,0004.86,0001.41,0000.95
2022-02-09 12:05:00,,0827.7,4.99,0.00,22.6,21.8,00.0,31.5,24.3,06.1,0000.0,0003.82,0001.44,0000.97
2022-02-09 12:06:00,,0827.7,5.00,0.00,22.6,21.8,00.0,31.5,24.3,06.1,0000.0,0003.67,0001.44,0000.97
2022-02-09 12:07:00,,0827.7,5.01,0.00,22.6,21.8,00.0,31.5,24.3,06.2,0000.0,0003.70,0001.45,0000.96
2022-02-09 12:08:00,,0827.7,4.99,0.00,22.6,21.8,00.0,31.5,24.3,06.3,0000.0,0003.87,0001.47,0000.96
2022-02-09 12:09:00,,0827.7,5.00,0.00,22.6,21.8,00.0,31.5,24.4,06.3,0000.0,0003.97,0001.49,0000.96
2022-02-09 12:10:00,,0827.7,5.00,0.00,22.6,21.8,00.0,31.5,24.4,06.2,0000.0,0004.13,0001.54,0000.96
2022-02-09 12:11:00,,0827.7,4.98,0.00,22.6,21.8,00.0,31.5,24.4,06.1,0000.0,0004.33,0001.54,0000.96
2022-02-09 12:12:00,,0827.7,5.01,0.00,22.6,21.8,00.0,31.5,24.4,06.1,0000.0,0004.29,0001.50,0000.95
2022-02-09 12:13:00,,0827.7,4.99,0.00,22.6,21.8,00.0,31.5,24.4,06.1,0000.0,0004.22,0001.49,0000.95
2022-02-09 12:14:00,,0827.7,5.00,0.00,22.6,21.8,00.0,31.5,24.4,06.1,0000.0,0004.10,0001.46,0000.95
2022-02-09 12:15:00,,0827.7,5.01,0.00,22.6,21.8,00.0,31.5,24.4,06.1,0000.0,0004.03,0001.46,0000.94
2022-02-09 12:16:00,,0827.7,4.99,0.00,22.6,21.8,00.0,31.5,24.3,06.1,0000.0,0004.13,0001.46,0000.91
2022-02-09 12:17:00,,0827.7,5.01,0.00,22.6,21.8,00.0,31.5,24.3,06.1,0000.0,0004.29,0001.46,0000.90
2022-02-09 12:18:00,,0827.7,4.99,0.00,22.6,21.8,00.0,31.5,24.4,06.2,0000.0,0004.36,0001.47,0000.90
2022-02-09 12:19:00,,0827.7,5.00,0.00,22.6,21.8,00.0,31.5,24.4,06.2,0000.0,0003.53,0001.42,0000.88
2022-02-09 12:20:00,,0827.7,5.02,0.00,22.6,21.8,00.0,31.5,24.4,06.2,0000.0,0003.83,0001.38,0000.87
2022-02-09 12:21:00,,0827.7,4.99,0.00,22.6,21.8,00.0,31.5,24.4,06.2,0000.0,0003.65,0001.34,0000.86
2022-02-09 12:22:00,,0827.7,5.00,0.00,22.6,21.8,00.0,31.5,24.4,06.2,0000.0,0003.47,0001.33,0000.84
2022-02-09 12:23:00,,0827.7,5.01,0.00,22.6,21.8,00.0,31.5,24.4,06.2,0000.0,0003.48,0001.32,0000.84
2022-02-09 12:24:00,,0827.7,4.99,0.00,22.6,21.8,00.0,31.5,24.4,06.2,0000.0,0003.44,0001.31,0000.83
2022-02-09 12:25:00,,0827.7,5.00,0.00,22.6,21.8,00.0,31.5,24.4,06.3,0000.0,0003.55,0001.35,0000.82
2022-02-09 12:26:00,,0827.7,5.01,0.00,22.6,21.8,00.0,31.5,24.4,06.2,0000.0,0003.38,0001.31,0000.83
2022-02-09 12:27:00,,0827.7,5.00,0.00,22.6,21.8,00.0,31.5,24.4,06.3,0000.0,0003.28,0001.28,0000.83
2022-02-09 12:28:00,,0827.7,5.00,0.00,22.6,21.8,00.0,31.5,24.4,06.2,0000.0,0003.10,0001.26,0000.84
2022-02-09 12:29:00,,0827.7,5.01,0.00,22.6,21.8,00.0,31.5,24.4,06.2,0000.0,0003.00,0001.24,0000.85
2022-02-09 12:30:00,,0827.7,5.00,0.00,22.6,21.8,00.0,31.5,24.4,06.3,0000.0,0003.05,0001.25,0000.85
2022-02-09 12:31:00,,0827.7,4.99,0.00,22.6,21.8,00.0,31.5,24.4,06.3,0000.0,0002.24,0001.28,0000.86
2022-02-09 12:32:00,,0827.8,5.02,0.00,22.6,21.8,00.0,31.5,24.4,06.3,0000.0,0002.24,0001.25,0000.87
2022-02-09 12:33:00,,0827.8,4.99,0.00,22.6,21.8,00.0,31.5,24.4,06.3,0000.0,0002.35,0001.27,0000.90
2022-02-09 12:34:00,,0827.8,5.01,0.00,22.6,21.8,00.0,31.5,24.3,06.3,0000.0,0002.73,0001.30,0000.92
2022-02-09 12:35:00,,0827.8,5.00,0.00,22.6,21.8,00.0,31.5,24.3,06.3,0000.0,0002.91,0001.36,0000.95
2022-02-09 12:36:00,,0827.8,4.99,0.00,22.6,21.7,00.0,31.5,24.3,06.4,0000.0,0002.96,0001.36,0000.98
2022-02-09 12:37:00,,0827.9,5.01,0.00,22.6,22.1,00.0,31.6,24.4,06.5,0000.0,0003.03,0001.39,0001.00
2022-02-09 12:38:00,,0827.9,5.01,0.00,22.7,22.8,00.0,31.6,24.6,06.5,0000.0,0003.13,0001.44,0001.03
2022-02-09 12:39:00,,0828.0,5.00,0.00,22.8,23.0,00.0,31.6,24.8,06.5,0000.0,0003.50,0001.49,0001.07
2022-02-09 12:40:00,,0827.8,5.00,0.00,22.8,22.9,00.0,31.6,24.8,06.6,0000.0,0004.19,0001.57,0001.11
2022-02-09 12:41:00,,0827.8,5.00,0.00,22.8,22.7,00.0,31.6,24.7,06.6,0000.0,0004.27,0001.65,0001.16
2022-02-09 12:42:00,,0827.9,5.00,0.00,22.8,22.6,00.0,31.7,24.7,06.7,0000.0,0004.24,0001.73,0001.22
2022-02-09 12:43:00,,0827.8,4.99,0.00,22.8,22.5,00.0,31.7,24.7,06.7,0000.0,0004.34,0001.82,0001.26
2022-02-09 12:44:00,,0827.9,5.00,0.00,22.8,22.4,00.0,31.7,24.7,06.9,0000.0,0004.45,0001.85,0001.28
2022-02-09 12:45:00,,0827.8,5.00,0.00,22.8,22.4,00.0,31.7,24.7,06.7,0000.0,0004.12,0001.89,0001.29
2022-02-09 12:46:00,,0827.8,5.00,0.00,22.8,22.3,00.0,31.7,24.7,06.5,0000.0,0004.26,0001.97,0001.33
2022-02-09 12:47:00,,0827.8,5.00,0.00,22.8,22.3,00.0,31.7,24.6,06.5,0000.0,0004.71,0002.06,0001.36
2022-02-09 12:48:00,,0827.8,4.99,0.00,22.8,22.2,00.0,31.7,24.6,06.5,0000.0,0005.61,0002.14,0001.41
2022-02-09 12:49:00,,0827.8,5.01,0.00,22.7,22.2,00.0,31.7,24.5,06.7,0000.0,0006.43,0002.18,0001.46
2022-02-09 12:50:00,,0827.8,5.00,0.00,22.7,22.1,00.0,31.7,24.5,07.0,0000.0,0006.52,0002.27,0001.50
2022-02-09 12:51:00,,0827.8,5.01,0.00,22.7,22.1,00.0,31.7,24.5,07.0,0000.0,0006.40,0002.37,0001.54
2022-02-09 12:52:00,,0827.7,5.00,0.00,22.7,22.0,00.0,31.7,24.5,06.6,0000.0,0006.68,0002.42,0001.55
2022-02-09 12:53:00,,0827.8,4.99,0.00,22.7,22.0,00.0,31.7,24.4,06.3,0000.0,0006.70,0002.40,0001.54
2022-02-09 12:54:00,,0827.8,5.01,0.00,22.6,21.9,00.0,31.7,24.4,06.8,0000.0,0006.80,0002.43,0001.58
2022-02-09 12:55:00,,0827.8,4.99,0.00,22.6,21.9,00.0,31.7,24.4,07.4,0000.0,0007.37,0002.54,0001.64
2022-02-09 12:56:00,,0827.9,5.00,0.00,22.6,21.9,00.0,31.7,24.4,07.3,0000.0,0007.65,0002.66,0001.70
2022-02-09 12:57:00,,0827.9,5.00,0.00,22.6,21.9,00.0,31.6,24.4,07.2,0000.0,0007.64,0002.69,0001.73
2022-02-09 12:58:00,,0827.8,5.00,0.00,22.6,21.9,00.0,31.6,24.4,07.4,0000.0,0007.46,0002.69,0001.75
2022-02-09 12:59:00,,0827.8,4.99,0.00,22.6,21.9,00.0,31.6,24.4,07.3,0000.0,0006.93,0002.77,0001.77
